Hickory, NC

4:19 PM EDT on July 21, 2017 (GMT -0400)
Hickory Regional

Weather History for KHKY - February, 2014

Change the Weather History Date:

Monday, February 17, 2014

  Actual Average Record
Temperature  
Mean Temperature 39 °F -  
Max Temperature 46 °F 51 °F 76 °F (1976)
Min Temperature 32 °F 31 °F 4 °F (1958)
Degree Days  
Heating Degree Days 26    
Moisture  
Dew Point 24 °F    
Average Humidity 53    
Maximum Humidity 70    
Minimum Humidity 39    
Precipitation  
Precipitation 0.00 in - - ()
Sea Level Pressure  
Sea Level Pressure 30.20 in    
Wind  
Wind Speed 2 mph (ENE)    
Max Wind Speed 7 mph    
Max Gust Speed -    
Visibility 10 miles    
Events      
Averages and records for this station are not official NWS values.
T = Trace of Precipitation, MM = Missing Value Source: NWS Daily Summary

Daily Weather History Graph

Daily Weather History Graph

Search for Another Location

Airport or City:

Trip Planner

Search our weather history database for the weather conditions in past years. The results will help you decide how hot, cold, wet, or windy it might be!

Date:

Astronomy

Feb. 17, 2014 Rise Set
Actual Time 7:10 AM EST 6:09 PM EST
Civil Twilight 6:44 AM EST 6:35 PM EST
Nautical Twilight 6:14 AM EST 7:05 PM EST
Astronomical Twilight 5:44 AM EST 7:34 PM EST
Moon 8:55 PM EST (2/17) 8:16 AM EST (2/17)
Length of Visible Light 11h 51m
Length of Day
10h 59m
Waning Gibbous, 93% of the Moon is Illuminated
Feb 17
Waning Gibbous
Feb 22
Last Quarter
Mar 1
New
Mar 8
First Quarter
Mar 16
Full

Hourly Weather History & Observations

Time (EST) Temp. Windchill Dew Point Humidity Pressure Visibility Wind Dir Wind Speed Gust Speed Precip Events Conditions
12:53 AM 39.0 °F - 26.1 °F 60% 30.12 in 10.0 mi Calm Calm - N/A   Clear
1:53 AM 39.0 °F - 27.0 °F 62% 30.13 in 10.0 mi Calm Calm - N/A   Clear
2:53 AM 39.0 °F - 27.0 °F 62% 30.15 in 10.0 mi Calm Calm - N/A   Clear
3:53 AM 37.0 °F 33.3 °F 26.1 °F 65% 30.17 in 10.0 mi East 4.6 mph - N/A   Clear
4:53 AM 35.1 °F 31.0 °F 26.1 °F 70% 30.19 in 10.0 mi East 4.6 mph - N/A   Clear
5:53 AM 33.1 °F 27.7 °F 24.1 °F 70% 30.22 in 10.0 mi East 5.8 mph - N/A   Clear
6:53 AM 32.0 °F 27.5 °F 23.0 °F 69% 30.24 in 10.0 mi ENE 4.6 mph - N/A   Clear
7:53 AM 33.1 °F 30.0 °F 23.0 °F 66% 30.27 in 10.0 mi NE 3.5 mph - N/A   Clear
8:53 AM 34.0 °F 28.0 °F 21.0 °F 59% 30.30 in 10.0 mi East 6.9 mph - N/A   Clear
9:53 AM 37.9 °F 33.5 °F 21.0 °F 51% 30.30 in 10.0 mi East 5.8 mph - N/A   Clear
10:53 AM 39.9 °F 35.1 °F 19.9 °F 45% 30.30 in 10.0 mi NE 6.9 mph - N/A   Clear
11:53 AM 39.9 °F 36.7 °F 19.9 °F 45% 30.29 in 10.0 mi East 4.6 mph - N/A   Clear
12:53 PM 42.1 °F - 21.0 °F 43% 30.25 in 10.0 mi Calm Calm - N/A   Clear
1:53 PM 44.1 °F 42.5 °F 21.0 °F 40% 30.21 in 10.0 mi Variable 3.5 mph - N/A   Clear
2:53 PM 46.0 °F - 21.9 °F 39% 30.20 in 10.0 mi Calm Calm - N/A   Clear
3:53 PM 46.0 °F 43.1 °F 21.9 °F 39% 30.17 in 10.0 mi South 5.8 mph - N/A   Clear
4:53 PM 45.0 °F - 23.0 °F 42% 30.16 in 10.0 mi Calm Calm - N/A   Clear
5:53 PM 45.0 °F - 23.0 °F 42% 30.17 in 10.0 mi Calm Calm - N/A   Clear
6:53 PM 43.0 °F 41.3 °F 24.1 °F 47% 30.19 in 10.0 mi East 3.5 mph - N/A   Mostly Cloudy
7:53 PM 43.0 °F - 25.0 °F 49% 30.17 in 10.0 mi Calm Calm - N/A   Overcast
8:53 PM 43.0 °F 41.3 °F 25.0 °F 49% 30.17 in 10.0 mi Variable 3.5 mph - N/A   Overcast
9:53 PM 43.0 °F - 26.1 °F 51% 30.16 in 10.0 mi Calm Calm - N/A   Overcast
10:53 PM 42.1 °F - 26.1 °F 53% 30.16 in 10.0 mi Calm Calm - N/A   Overcast
11:53 PM 39.9 °F 37.8 °F 28.0 °F 63% 30.17 in 10.0 mi North 3.5 mph - N/A   Overcast